Location: Aufkirchen
(47.9603°N, 11.3653°E)
Time: 17:03:13
(UTC+01:00)

Transit 2A - Pass Details

Date: 26 November 2020
Orbit: 599 x 960 km, 66.7° (Epoch: 26 January)

Event Time Altitude Azimuth Distance (km) Brightness Sun altitude
Rises 03:24:20 0° 322° (NW) 3,318 - -41.5°
Reaches altitude 10° 03:26:56 10° 317° (NW) 2,322 - -41.1°
Maximum altitude 03:32:01 50° 243° (WSW) 911 - -40.3°
Drops below altitude 10° 03:36:35 10° 169° (S) 2,090 - -39.5°
Sets 03:38:49 0° 164° (SSE) 2,953 - -39.2°
